Home   Weather   Kristiansund   Past weeks
Flag for Norway

Past Weather in Kristiansund, Norway — Yesterday and Last 2 Weeks

Now
72 °F

Sunny.


Feels Like: 77 °F
Forecast: 61 / 56 °F
Wind: 3 mph from North

Location: Kristiansund / Kvernberget

Current Time: Jul 18, 2019 at 7:32:34 pm

Latest Report: Jul 18, 2019 at 6:50 pm


Visibility: 10 mi

Pressure: 29.68 "Hg

Humidity: 50%

Dew Point: 52 °F

Location of KristiansundLocation

Past Weather in Kristiansund — Graph

°F

Kristiansund Temperature Yesterday

Maximum temperature yesterday: 63 °F (at 3:20 pm)
Minimum temperature yesterday: 50 °F (at 2:20 am)
Average temperature yesterday: 57 °F

High & Low Weather Summary for the Past Weeks

 TemperatureHumidityPressure
High73 °F (Jul 18, 4:50 pm)100% (Jul 10, 6:20 am)30.12 "Hg (Jul 10, 6:20 am)
Low43 °F (Jul 3, 9:50 pm)44% (Jul 18, 4:50 pm)29.65 "Hg (Jul 6, 8:20 am)
Average53 °F78%29.92 "Hg
* Reported Jul 3 6:20 pm — Jul 18 6:20 pm, Kristiansund. Weather by CustomWeather, © 2019

Note: Actual official high and low records may vary slightly from our data, if they occured in-between our weather recording intervals... More about our weather records

Advertising

Kristiansund Weather History for the Previous 24 Hours

Scroll right to see more
 ConditionsComfort  
Time TempWeatherWind HumidityBarometerVisibility
6:20 pm
Thu, Jul 18
72 °FSunny.5 mph57%29.68 "Hg10 mi
5:50 pm72 °FSunny.3 mph50%29.68 "Hg10 mi
5:20 pm72 °FSunny.3 mph57%29.68 "Hg10 mi
4:50 pm73 °FSunny.3 mph44%29.71 "Hg10 mi
4:20 pm72 °FSunny.3 mph47%29.71 "Hg10 mi
3:50 pm72 °FSunny.No wind47%29.71 "Hg10 mi
3:20 pm70 °FSunny.3 mph50%29.71 "Hg10 mi
2:50 pm68 °FSunny.1 mph53%29.71 "Hg10 mi
2:20 pm68 °FSunny.7 mph53%29.71 "Hg10 mi
1:50 pm66 °FPassing clouds.7 mph56%29.71 "HgN/A
1:20 pm66 °FSunny.12 mph56%29.71 "Hg10 mi
12:50 pm64 °FSunny.10 mph60%29.71 "Hg10 mi
12:20 pm64 °FSunny.10 mph60%29.74 "Hg10 mi
11:50 am64 °FPassing clouds.9 mph60%29.74 "HgN/A
11:20 am66 °FSunny.8 mph56%29.74 "Hg10 mi
10:20 am64 °FSunny.6 mph64%29.74 "Hg10 mi
9:50 am63 °FPassing clouds.3 mph68%29.74 "HgN/A
9:20 am63 °FSunny.3 mph68%29.74 "Hg10 mi
8:50 am59 °FSunny.5 mph77%29.74 "Hg10 mi
8:20 am59 °FPassing clouds.3 mph82%29.74 "HgN/A
7:50 am57 °FSunny.2 mph88%29.77 "Hg10 mi
7:20 am57 °FSunny.3 mph82%29.77 "Hg10 mi
6:50 am57 °FSunny.3 mph82%29.77 "Hg10 mi
6:20 am55 °FSunny.5 mph88%29.77 "Hg10 mi
5:50 am55 °FSunny.3 mph88%29.77 "Hg10 mi
5:20 am55 °FOvercast.3 mph88%29.77 "HgN/A
4:20 am55 °FOvercast.3 mph88%29.77 "HgN/A
3:50 am55 °FOvercast.5 mph88%29.80 "HgN/A
3:20 am55 °FMostly cloudy.2 mph88%29.80 "HgN/A
2:50 am55 °FOvercast.3 mph88%29.80 "HgN/A
2:20 am55 °FPassing clouds.3 mph82%29.80 "HgN/A
1:50 am55 °FOvercast.2 mph82%29.80 "HgN/A
1:20 am55 °FOvercast.No wind82%29.80 "HgN/A
12:50 am55 °FPassing clouds.No wind77%29.80 "HgN/A
12:20 am55 °FMostly cloudy.No wind82%29.80 "HgN/A
11:50 pm
Wed, Jul 17
55 °FPassing clouds.No wind77%29.80 "HgN/A
11:20 pm55 °FPassing clouds.1 mph77%29.83 "HgN/A
10:50 pm55 °FSunny.No wind77%29.83 "Hg10 mi
10:20 pm57 °FSunny.3 mph72%29.83 "Hg10 mi
9:50 pm57 °FPassing clouds.5 mph72%29.83 "HgN/A
9:20 pm59 °FSunny.6 mph68%29.83 "Hg10 mi
8:50 pm59 °FSunny.7 mph68%29.83 "Hg10 mi
8:20 pm59 °FSunny.7 mph68%29.83 "Hg10 mi
7:50 pm59 °FSunny.8 mph68%29.83 "Hg10 mi
7:20 pm61 °FSunny.8 mph68%29.83 "Hg10 mi
Weather by CustomWeather, © 2019

See weather overview